ICT,Max TemperatureF,Mean TemperatureF,Min TemperatureF,Max Dew PointF,MeanDew PointF,Min DewpointF,Max Humidity, Mean Humidity, Min Humidity, Max Sea Level PressureIn, Mean Sea Level PressureIn, Min Sea Level PressureIn, Max VisibilityMiles, Mean VisibilityMiles, Min VisibilityMiles, Max Wind SpeedMPH, Mean Wind SpeedMPH, Max Gust SpeedMPH,PrecipitationIn, CloudCover, Events, WindDirDegrees
2013-3-1,96,89,82,79,75,72,84,68,44,29.89,29.81,29.74,6,6,6,15,8,,0.00,4,,201
2013-3-2,95,88,80,79,76,73,89,70,51,29.92,29.84,29.80,6,6,6,14,6,,0.00,4,,196
2013-3-3,89,84,78,79,76,73,94,80,61,29.98,29.90,29.83,6,6,1,12,6,,1.89,5,Rain,148
2013-3-4,78,76,75,75,72,68,94,82,69,30.01,29.97,29.92,6,5,4,9,5,,0.01,6,Rain,32
2013-3-5,89,81,73,70,66,64,83,63,42,30.06,29.98,29.92,6,6,5,12,6,,0.00,6,,19
2013-3-6,95,85,75,70,66,61,74,55,29,30.01,29.93,29.86,6,5,4,9,4,,0.00,3,,19
2013-3-7,95,86,78,72,68,62,74,54,30,30.01,29.91,29.83,6,5,3,12,4,,0.00,3,,105
2013-3-8,97,88,79,77,74,66,89,64,33,29.95,29.88,29.80,6,4,1,14,4,,0.00,4,,163
2013-3-9,96,89,82,79,75,70,84,68,39,29.92,29.85,29.77,6,6,5,16,7,,0.00,6,,203
2013-3-10,95,88,82,77,74,70,84,66,37,29.89,29.83,29.74,6,6,6,12,7,,0.00,5,,203
2013-3-11,96,88,80,77,74,70,89,66,38,29.89,29.83,29.77,6,5,2,15,7,,0.00,4,,187
2013-3-12,95,88,82,77,74,70,84,66,37,29.89,29.82,29.74,6,6,4,14,8,,0.00,4,,203
2013-3-13,98,89,80,77,71,59,89,60,27,29.92,29.84,29.77,6,6,5,10,6,,0.00,4,,200
2013-3-14,99,90,80,77,74,68,89,64,31,29.95,29.86,29.77,6,6,4,14,7,,0.00,5,,181
2013-3-15,93,86,78,77,74,71,83,71,50,29.95,29.90,29.83,6,6,5,18,5,,0.08,6,Rain-Thunderstorm,147
2013-3-16,95,86,78,77,75,73,89,71,48,29.98,29.91,29.83,6,5,2,10,4,,0.00,6,,169
2013-3-17,97,88,80,79,76,72,89,68,41,29.92,29.84,29.74,6,6,4,15,7,,0.00,5,,201
2013-3-18,95,89,83,77,76,73,79,68,48,29.83,29.77,29.68,6,6,6,20,9,,0.00,5,,206
2013-3-19,99,90,82,79,75,63,84,68,30,29.86,29.77,29.71,6,6,6,16,7,,0.00,5,,199
2013-3-20,97,89,81,79,76,70,89,69,40,29.86,29.79,29.71,6,6,6,14,7,,0.00,5,,193
2013-3-21,95,88,81,77,75,72,89,67,43,29.86,29.77,29.68,6,6,4,12,7,,0.00,5,,187
2013-3-22,97,89,81,75,73,64,79,61,35,29.83,29.77,29.68,6,6,6,16,9,,0.00,4,,199
2013-3-23,100,90,80,77,72,63,89,60,28,29.86,29.78,29.68,6,6,6,15,7,,0.00,4,,191
2013-3-24,99,90,81,77,76,75,84,67,42,29.86,29.76,29.65,6,6,6,14,8,,0.00,4,,193
2013-3-25,104,94,83,79,74,57,84,62,21,29.80,29.72,29.62,6,6,6,13,7,,0.00,4,,195
2013-3-26,103,92,82,81,70,54,89,56,18,29.80,29.72,29.65,6,6,5,15,6,,0.00,5,,212
2013-3-27,99,90,82,79,76,66,84,64,36,29.86,29.75,29.68,6,6,4,12,7,,0.00,4,,202
2013-3-28,99,92,84,81,77,73,89,67,38,29.83,29.75,29.68,6,6,4,14,8,,0.00,5,,202
2013-3-29,96,89,82,79,76,68,89,66,40,29.83,29.75,29.68,6,6,6,15,8,,0.00,5,,189
2013-3-30,98,91,84,79,76,64,84,64,26,29.80,29.73,29.65,6,6,6,15,9,,0.00,4,,197
2013-3-31,99,92,84,79,73,66,79,59,27,29.83,29.76,29.68,6,6,6,15,8,,0.00,3,,197